| time (UTC) | temp F | wind direction | speed MPH | gust MPH | rain 1hr in | rain 24hr in | rain mn in | humidity % | barometer mb |
| 20260901013050 | 86 | 107 | 1.0 | 7.0 | 0.00 | 0.27 | 0.27 | 47 | 1010.4 |
| 20260901012524 | 87 | 138 | 1.0 | 7.0 | 0.00 | 0.27 | 0.27 | 46 | 1010.4 |
| 20260901012025 | 87 | 97 | 1.0 | 6.0 | 0.00 | 0.27 | 0.27 | 46 | 1010.5 |
| 20260901011550 | 87 | 106 | 2.0 | 6.0 | 0.00 | 0.27 | 0.27 | 47 | 1010.5 |
| 20260901011024 | 87 | 86 | 2.0 | 7.0 | 0.00 | 0.27 | 0.27 | 47 | 1010.4 |
| 20260901010527 | 87 | 100 | 2.0 | 10.0 | 0.00 | 0.27 | 0.27 | 48 | 1010.5 |
| 20260901010049 | 87 | 65 | 2.0 | 10.0 | 0.00 | 0.27 | 0.27 | 48 | 1010.6 |
| 20260901005528 | 87 | 61 | 2.0 | 9.0 | 0.00 | 0.27 | 0.27 | 48 | 1010.6 |
| 20260901005026 | 87 | 57 | 2.0 | 7.0 | 0.00 | 0.27 | 0.27 | 48 | 1010.7 |
| 20260901004556 | 87 | 105 | 1.0 | 7.0 | 0.00 | 0.27 | 0.27 | 50 | 1010.7 |
| 20260901004024 | 87 | 119 | 2.0 | 6.0 | 0.00 | 0.27 | 0.27 | 50 | 1010.9 |
| 20260901003525 | 87 | 79 | 2.0 | 7.0 | 0.00 | 0.27 | 0.27 | 51 | 1010.9 |
| 20260901003053 | 87 | 72 | 2.0 | 8.0 | 0.00 | 0.27 | 0.27 | 51 | 1010.9 |
| 20260901002525 | 87 | 88 | 2.0 | 8.0 | 0.00 | 0.27 | 0.27 | 51 | 1010.8 |
| 20260901002029 | 87 | 111 | 2.0 | 8.0 | 0.00 | 0.27 | 0.27 | 50 | 1011.0 |
| 20260901001549 | 87 | 66 | 2.0 | 7.0 | 0.00 | 0.27 | 0.27 | 50 | 1010.9 |
| 20260901001026 | 87 | 92 | 2.0 | 6.0 | 0.00 | 0.27 | 0.27 | 51 | 1010.8 |
| 20260901000524 | 87 | 342 | 1.0 | 6.0 | 0.00 | 0.27 | 0.27 | 51 | 1011.1 |
| 20260901000105 | 87 | 89 | 2.0 | 6.0 | 0.00 | 0.27 | 0.27 | 51 | 1011.0 |
| 20260831235525 | 87 | 165 | 2.0 | 6.0 | 0.00 | 0.27 | 0.27 | 51 | 1011.1 |
| 20260831235027 | 87 | 82 | 1.0 | 8.0 | 0.00 | 0.27 | 0.27 | 51 | 1011.2 |
| 20260831234550 | 87 | 0 | 2.0 | 9.0 | 0.00 | 0.27 | 0.27 | 51 | 1011.1 |
| 20260831234026 | 87 | 141 | 2.0 | 9.0 | 0.00 | 0.27 | 0.27 | 50 | 1011.1 |
| 20260831233527 | 87 | 142 | 2.0 | 10.0 | 0.00 | 0.27 | 0.27 | 50 | 1011.0 |
| 20260831233054 | 87 | 68 | 3.0 | 10.0 | 0.00 | 0.27 | 0.27 | 49 | 1011.1 |
| 20260831232524 | 87 | 55 | 2.0 | 10.0 | 0.00 | 0.27 | 0.27 | 49 | 1011.0 |
| 20260831232024 | 87 | 103 | 2.0 | 10.0 | 0.00 | 0.27 | 0.27 | 49 | 1011.1 |
| 20260831231555 | 87 | 190 | 3.0 | 11.0 | 0.00 | 0.27 | 0.27 | 50 | 1011.1 |
| 20260831231024 | 87 | 0 | 4.0 | 11.0 | 0.00 | 0.27 | 0.27 | 51 | 1011.1 |
| 20260831230529 | 87 | 162 | 2.0 | 11.0 | 0.00 | 0.27 | 0.27 | 51 | 1011.1 |
| 20260831230055 | 86 | 122 | 2.0 | 12.0 | 0.00 | 0.27 | 0.27 | 50 | 1011.4 |
| 20260831225526 | 86 | 176 | 4.0 | 12.0 | 0.00 | 0.27 | 0.27 | 50 | 1011.5 |
| 20260831225027 | 86 | 140 | 3.0 | 10.0 | 0.00 | 0.27 | 0.27 | 51 | 1011.6 |
| 20260831224552 | 86 | 194 | 4.0 | 12.0 | 0.00 | 0.27 | 0.27 | 52 | 1011.7 |
| 20260831224024 | 86 | 129 | 4.0 | 14.0 | 0.00 | 0.27 | 0.27 | 51 | 1011.8 |
| 20260831223529 | 86 | 181 | 5.0 | 14.0 | 0.00 | 0.27 | 0.27 | 50 | 1011.8 |
| 20260831223055 | 86 | 127 | 3.0 | 13.0 | 0.00 | 0.27 | 0.27 | 51 | 1011.9 |
| 20260831222530 | 86 | 153 | 6.0 | 13.0 | 0.00 | 0.27 | 0.27 | 50 | 1012.1 |
| 20260831222029 | 86 | 101 | 4.0 | 11.0 | 0.00 | 0.27 | 0.27 | 51 | 1012.2 |
| 20260831221552 | 86 | 187 | 3.0 | 12.0 | 0.00 | 0.27 | 0.27 | 51 | 1012.2 |
| 20260831221028 | 86 | 159 | 4.0 | 12.0 | 0.00 | 0.27 | 0.27 | 51 | 1012.5 |
| 20260831220527 | 86 | 173 | 4.0 | 16.0 | 0.00 | 0.27 | 0.27 | 53 | 1012.8 |
| 20260831220052 | 86 | 196 | 4.0 | 16.0 | 0.00 | 0.27 | 0.27 | 53 | 1012.8 |
| 20260831215526 | 86 | 145 | 2.0 | 16.0 | 0.00 | 0.27 | 0.27 | 54 | 1012.9 |
| 20260831215025 | 86 | 145 | 5.0 | 16.0 | 0.00 | 0.27 | 0.27 | 52 | 1013.1 |
| 20260831214553 | 86 | 153 | 2.0 | 12.0 | 0.00 | 0.27 | 0.27 | 53 | 1013.2 |
| 20260831214023 | 86 | 161 | 3.0 | 12.0 | 0.00 | 0.27 | 0.27 | 53 | 1013.3 |
| 20260831213531 | 85 | 127 | 4.0 | 12.0 | 0.00 | 0.27 | 0.27 | 51 | 1013.5 |
| 20260831213056 | 85 | 183 | 4.0 | 11.0 | 0.00 | 0.27 | 0.27 | 52 | 1013.6 |
| 20260831212522 | 85 | 118 | 3.0 | 12.0 | 0.00 | 0.27 | 0.27 | 53 | 1013.7 |
| 20260831212025 | 85 | 163 | 5.0 | 12.0 | 0.00 | 0.27 | 0.27 | 54 | 1013.7 |
| 20260831211553 | 85 | 85 | 4.0 | 12.0 | 0.00 | 0.27 | 0.27 | 56 | 1013.8 |
| 20260831211025 | 85 | 167 | 5.0 | 15.0 | 0.00 | 0.27 | 0.27 | 55 | 1013.9 |
| 20260831210529 | 84 | 165 | 4.0 | 15.0 | 0.00 | 0.27 | 0.27 | 56 | 1013.9 |
| 20260831210050 | 84 | 121 | 6.0 | 14.0 | 0.00 | 0.27 | 0.27 | 57 | 1014.0 |
| 20260831205526 | 84 | 137 | 5.0 | 12.0 | 0.00 | 0.27 | 0.27 | 58 | 1014.0 |
| 20260831205025 | 83 | 99 | 3.0 | 12.0 | 0.00 | 0.27 | 0.27 | 62 | 1014.1 |
| 20260831204548 | 83 | 126 | 6.0 | 11.0 | 0.00 | 0.27 | 0.27 | 63 | 1014.1 |
| 20260831204027 | 83 | 103 | 4.0 | 12.0 | 0.00 | 0.27 | 0.27 | 64 | 1014.2 |
| 20260831203528 | 82 | 121 | 4.0 | 12.0 | 0.00 | 0.27 | 0.27 | 66 | 1014.3 |
| 20260831203046 | 81 | 65 | 3.0 | 14.0 | 0.00 | 0.27 | 0.27 | 68 | 1014.4 |
| 20260831202524 | 80 | 146 | 4.0 | 15.0 | 0.00 | 0.27 | 0.27 | 70 | 1014.3 |
| 20260831202026 | 79 | 145 | 6.0 | 15.0 | 0.00 | 0.27 | 0.27 | 71 | 1014.5 |
| 20260831201551 | 78 | 170 | 6.0 | 13.0 | 0.00 | 0.27 | 0.27 | 72 | 1014.5 |
| 20260831201025 | 78 | 151 | 6.0 | 14.0 | 0.00 | 0.27 | 0.27 | 73 | 1014.4 |
| 20260831200527 | 78 | 187 | 5.0 | 14.0 | 0.00 | 0.27 | 0.27 | 74 | 1014.6 |
| 20260831200052 | 77 | 133 | 5.0 | 12.0 | 0.00 | 0.27 | 0.27 | 74 | 1014.6 |
| 20260831195523 | 77 | 156 | 3.0 | 14.0 | 0.00 | 0.27 | 0.27 | 76 | 1014.7 |
| 20260831195023 | 76 | 117 | 4.0 | 14.0 | 0.00 | 0.27 | 0.27 | 76 | 1014.7 |
| 20260831194618 | 76 | 160 | 5.0 | 10.0 | 0.00 | 0.27 | 0.27 | 77 | 1014.9 |
| 20260831194024 | 76 | 158 | 5.0 | 12.0 | 0.00 | 0.27 | 0.27 | 76 | 1014.9 |
| 20260831193527 | 75 | 145 | 4.0 | 12.0 | 0.00 | 0.27 | 0.27 | 77 | 1014.8 |
| 20260831193051 | 75 | 157 | 5.0 | 12.0 | 0.00 | 0.27 | 0.27 | 77 | 1014.7 |
| 20260831192525 | 75 | 219 | 4.0 | 12.0 | 0.00 | 0.27 | 0.27 | 77 | 1014.7 |
| 20260831192024 | 75 | 133 | 5.0 | 16.0 | 0.00 | 0.27 | 0.27 | 77 | 1014.8 |
| 20260831191552 | 75 | 171 | 6.0 | 16.0 | 0.00 | 0.27 | 0.27 | 77 | 1014.9 |
| 20260831191023 | 75 | 174 | 5.0 | 14.0 | 0.00 | 0.27 | 0.27 | 78 | 1014.7 |
| 20260831190524 | 75 | 137 | 6.0 | 14.0 | 0.00 | 0.27 | 0.27 | 78 | 1014.7 |
| 20260831190105 | 75 | 184 | 6.0 | 16.0 | 0.00 | 0.27 | 0.27 | 78 | 1014.7 |
| 20260831185524 | 75 | 171 | 6.0 | 16.0 | 0.00 | 0.27 | 0.27 | 79 | 1015.0 |
| 20260831185026 | 75 | 144 | 8.0 | 16.0 | 0.00 | 0.27 | 0.27 | 81 | 1015.0 |
| 20260831184604 | 75 | 147 | 5.0 | 13.0 | 0.00 | 0.27 | 0.27 | 83 | 1015.0 |
| 20260831184025 | 75 | 150 | 5.0 | 13.0 | 0.00 | 0.27 | 0.27 | 84 | 1014.9 |
| 20260831183525 | 75 | 178 | 6.0 | 16.0 | 0.00 | 0.27 | 0.27 | 85 | 1015.0 |
| 20260831183048 | 75 | 186 | 7.0 | 16.0 | 0.00 | 0.27 | 0.27 | 85 | 1015.0 |
| 20260831182525 | 75 | 153 | 7.0 | 18.0 | 0.00 | 0.27 | 0.27 | 85 | 1015.0 |
| 20260831182030 | 75 | 139 | 7.0 | 18.0 | 0.00 | 0.27 | 0.27 | 83 | 1015.0 |
| 20260831181554 | 75 | 185 | 8.0 | 16.0 | 0.00 | 0.27 | 0.27 | 81 | 1015.1 |
| 20260831181028 | 76 | 137 | 8.0 | 16.0 | 0.00 | 0.27 | 0.27 | 81 | 1015.3 |
| 20260831180528 | 76 | 189 | 7.0 | 13.0 | 0.00 | 0.27 | 0.27 | 82 | 1015.3 |
| 20260831180050 | 76 | 210 | 5.0 | 11.0 | 0.00 | 0.27 | 0.27 | 83 | 1015.4 |
| 20260831175525 | 75 | 143 | 4.0 | 11.0 | 0.00 | 0.27 | 0.27 | 84 | 1015.6 |
| 20260831175024 | 75 | 137 | 3.0 | 8.0 | 0.00 | 0.27 | 0.27 | 85 | 1015.6 |
| 20260831174549 | 75 | 157 | 3.0 | 8.0 | 0.00 | 0.27 | 0.27 | 86 | 1015.8 |
| 20260831174027 | 75 | 138 | 3.0 | 7.0 | 0.00 | 0.27 | 0.27 | 87 | 1015.8 |
| 20260831173524 | 75 | 140 | 1.0 | 4.0 | 0.01 | 0.27 | 0.27 | 88 | 1015.7 |
| 20260831173049 | 75 | 126 | 1.0 | 6.0 | 0.01 | 0.27 | 0.27 | 88 | 1015.6 |
| 20260831172524 | 75 | 126 | 2.0 | 7.0 | 0.02 | 0.27 | 0.27 | 87 | 1015.6 |
| 20260831172026 | 75 | 0 | 1.0 | 7.0 | 0.02 | 0.27 | 0.27 | 87 | 1015.6 |
| 20260831171548 | 75 | 92 | 1.0 | 9.0 | 0.02 | 0.27 | 0.27 | 87 | 1015.6 |
| 20260831171028 | 74 | 88 | 3.0 | 10.0 | 0.03 | 0.27 | 0.27 | 87 | 1015.3 |
| 20260831170534 | 74 | 120 | 4.0 | 10.0 | 0.03 | 0.27 | 0.27 | 87 | 1015.3 |
| 20260831170051 | 74 | 38 | 1.0 | 7.0 | 0.03 | 0.27 | 0.27 | 87 | 1015.4 |
| 20260831165527 | 74 | 80 | 2.0 | 7.0 | 0.04 | 0.27 | 0.27 | 87 | 1015.3 |
| 20260831165025 | 74 | 67 | 2.0 | 9.0 | 0.06 | 0.27 | 0.27 | 87 | 1015.5 |
| 20260831164555 | 74 | 84 | 2.0 | 11.0 | 0.07 | 0.27 | 0.27 | 87 | 1015.2 |
| 20260831164023 | 74 | 69 | 4.0 | 11.0 | 0.08 | 0.27 | 0.27 | 87 | 1015.1 |
| 20260831163524 | 74 | 72 | 5.0 | 11.0 | 0.08 | 0.26 | 0.26 | 87 | 1015.2 |
| 20260831163050 | 74 | 43 | 4.0 | 12.0 | 0.09 | 0.26 | 0.26 | 87 | 1015.2 |
| 20260831162529 | 74 | 72 | 5.0 | 12.0 | 0.08 | 0.25 | 0.25 | 87 | 1015.0 |
| 20260831162028 | 74 | 54 | 6.0 | 12.0 | 0.09 | 0.25 | 0.25 | 87 | 1014.7 |
| 20260831161555 | 74 | 23 | 5.0 | 13.0 | 0.09 | 0.24 | 0.24 | 86 | 1014.7 |
| 20260831161030 | 73 | 35 | 6.0 | 13.0 | 0.09 | 0.24 | 0.24 | 87 | 1014.8 |
| 20260831160524 | 73 | 52 | 5.0 | 11.0 | 0.10 | 0.24 | 0.24 | 89 | 1015.0 |
| 20260831160050 | 73 | 59 | 6.0 | 11.0 | 0.09 | 0.23 | 0.23 | 90 | 1014.8 |
| 20260831155527 | 73 | 49 | 4.0 | 9.0 | 0.10 | 0.23 | 0.23 | 90 | 1014.8 |
| 20260831155028 | 73 | 47 | 4.0 | 9.0 | 0.09 | 0.21 | 0.21 | 90 | 1014.9 |
| 20260831154659 | 73 | 36 | 2.0 | 5.0 | 0.09 | 0.20 | 0.20 | 90 | 1014.9 |
| 20260831154028 | 73 | 25 | 2.0 | 4.0 | 0.08 | 0.19 | 0.19 | 89 | 1015.0 |
| 20260831153528 | 73 | 5 | 0.0 | 4.0 | 0.07 | 0.18 | 0.18 | 89 | 1014.9 |
| 20260831153055 | 73 | 25 | 1.0 | 6.0 | 0.06 | 0.17 | 0.17 | 89 | 1014.8 |
| 20260831152525 | 73 | 35 | 2.0 | 6.0 | 0.06 | 0.17 | 0.17 | 89 | 1014.7 |
| 20260831152034 | 73 | 105 | 3.0 | 6.0 | 0.05 | 0.16 | 0.16 | 89 | 1014.5 |
| 20260831151550 | 73 | 108 | 1.0 | 9.0 | 0.04 | 0.15 | 0.15 | 88 | 1014.5 |
| 20260831151026 | 73 | 123 | 2.0 | 10.0 | 0.04 | 0.15 | 0.15 | 88 | 1014.4 |
| 20260831150530 | 73 | 135 | 3.0 | 12.0 | 0.03 | 0.14 | 0.14 | 88 | 1014.4 |
| 20260831150052 | 73 | 97 | 6.0 | 15.0 | 0.02 | 0.13 | 0.13 | 87 | 1014.3 |
| 20260831145528 | 73 | 107 | 7.0 | 15.0 | 0.02 | 0.13 | 0.13 | 86 | 1014.5 |
| 20260831145029 | 74 | 175 | 7.0 | 14.0 | 0.01 | 0.12 | 0.12 | 85 | 1014.5 |
| 20260831144547 | 74 | 158 | 5.0 | 10.0 | 0.00 | 0.11 | 0.11 | 84 | 1014.8 |
| 20260831144028 | 75 | 238 | 4.0 | 10.0 | 0.00 | 0.11 | 0.11 | 83 | 1014.8 |
| 20260831143526 | 75 | 211 | 4.0 | 10.0 | 0.00 | 0.11 | 0.11 | 82 | 1014.8 |
| 20260831143112 | 75 | 232 | 3.0 | 12.0 | 0.00 | 0.11 | 0.11 | 80 | 1014.6 |
| 20260831142529 | 75 | 163 | 4.0 | 14.0 | 0.00 | 0.11 | 0.11 | 79 | 1014.4 |
| 20260831142023 | 75 | 163 | 4.0 | 14.0 | 0.00 | 0.11 | 0.11 | 79 | 1014.1 |
| 20260831141610 | 75 | 142 | 6.0 | 12.0 | 0.00 | 0.11 | 0.11 | 79 | 1013.9 |
| 20260831141026 | 75 | 182 | 5.0 | 14.0 | 0.00 | 0.11 | 0.11 | 79 | 1013.6 |
| 20260831140527 | 75 | 157 | 7.0 | 17.0 | 0.00 | 0.11 | 0.11 | 79 | 1013.5 |
| 20260831140054 | 75 | 166 | 6.0 | 17.0 | 0.00 | 0.11 | 0.11 | 79 | 1013.4 |
| 20260831135527 | 75 | 120 | 6.0 | 13.0 | 0.00 | 0.11 | 0.11 | 80 | 1013.2 |
| 20260831135028 | 75 | 111 | 5.0 | 13.0 | 0.00 | 0.11 | 0.11 | 80 | 1013.0 |
| 20260831134554 | 75 | 207 | 5.0 | 15.0 | 0.00 | 0.11 | 0.11 | 80 | 1013.0 |
| 20260831134026 | 75 | 146 | 6.0 | 16.0 | 0.00 | 0.11 | 0.11 | 80 | 1012.9 |
| 20260831133526 | 76 | 141 | 4.0 | 16.0 | 0.00 | 0.11 | 0.11 | 80 | 1012.7 |
| 20260831133047 | 76 | 107 | 5.0 | 17.0 | 0.00 | 0.11 | 0.11 | 79 | 1012.6 |
| 20260831132525 | 76 | 67 | 4.0 | 19.0 | 0.00 | 0.11 | 0.11 | 78 | 1012.5 |
| 20260831132034 | 76 | 138 | 6.0 | 19.0 | 0.00 | 0.11 | 0.11 | 77 | 1012.4 |
| 20260831131552 | 76 | 102 | 8.0 | 17.0 | 0.00 | 0.11 | 0.11 | 76 | 1012.3 |
| 20260831131025 | 77 | 54 | 5.0 | 17.0 | 0.00 | 0.11 | 0.11 | 76 | 1012.2 |
| 20260831130528 | 77 | 74 | 6.0 | 16.0 | 0.00 | 0.11 | 0.11 | 75 | 1012.1 |
| 20260831130056 | 77 | 100 | 4.0 | 11.0 | 0.00 | 0.11 | 0.11 | 75 | 1012.1 |
| 20260831125528 | 78 | 81 | 3.0 | 8.0 | 0.00 | 0.11 | 0.11 | 74 | 1012.1 |
| 20260831125028 | 78 | 188 | 3.0 | 8.0 | 0.00 | 0.11 | 0.11 | 72 | 1012.1 |
| 20260831124551 | 79 | 136 | 3.0 | 7.0 | 0.00 | 0.11 | 0.11 | 71 | 1012.1 |
| 20260831124026 | 79 | 94 | 1.0 | 4.0 | 0.00 | 0.11 | 0.11 | 69 | 1012.0 |
| 20260831123526 | 79 | 104 | 1.0 | 4.0 | 0.00 | 0.11 | 0.11 | 69 | 1011.9 |
| 20260831123052 | 79 | 104 | 0.0 | 5.0 | 0.00 | 0.11 | 0.11 | 70 | 1011.7 |
| 20260831122527 | 79 | 0 | 0.0 | 5.0 | 0.00 | 0.11 | 0.11 | 69 | 1011.7 |
| 20260831122027 | 79 | 220 | 2.0 | 5.0 | 0.00 | 0.11 | 0.11 | 69 | 1011.4 |
| 20260831121548 | 79 | 247 | 1.0 | 4.0 | 0.00 | 0.11 | 0.11 | 68 | 1011.3 |
| 20260831121026 | 79 | 266 | 1.0 | 6.0 | 0.00 | 0.11 | 0.11 | 68 | 1011.2 |
| 20260831120527 | 79 | 297 | 1.0 | 6.0 | 0.00 | 0.11 | 0.11 | 67 | 1011.1 |
| 20260831120059 | 79 | 290 | 2.0 | 6.0 | 0.00 | 0.11 | 0.11 | 67 | 1011.1 |
| 20260831115528 | 79 | 278 | 1.0 | 4.0 | 0.00 | 0.11 | 0.11 | 67 | 1010.9 |
| 20260831115028 | 79 | 295 | 1.0 | 4.0 | 0.00 | 0.11 | 0.11 | 67 | 1010.8 |
| 20260831114549 | 79 | 277 | 2.0 | 5.0 | 0.00 | 0.11 | 0.11 | 68 | 1010.7 |
| 20260831114026 | 79 | 247 | 1.0 | 6.0 | 0.00 | 0.11 | 0.11 | 68 | 1010.7 |
| 20260831113525 | 79 | 231 | 2.0 | 6.0 | 0.00 | 0.11 | 0.11 | 69 | 1010.7 |
| 20260831113054 | 78 | 241 | 2.0 | 5.0 | 0.00 | 0.11 | 0.11 | 69 | 1010.5 |
| 20260831112526 | 78 | 334 | 1.0 | 6.0 | 0.00 | 0.11 | 0.11 | 69 | 1010.5 |
| 20260831112025 | 78 | 0 | 3.0 | 9.0 | 0.00 | 0.11 | 0.11 | 69 | 1010.5 |
| 20260831111549 | 78 | 163 | 2.0 | 9.0 | 0.00 | 0.11 | 0.11 | 70 | 1010.3 |
| 20260831111024 | 78 | 168 | 4.0 | 9.0 | 0.00 | 0.11 | 0.11 | 71 | 1010.2 |
| 20260831110527 | 78 | 189 | 4.0 | 9.0 | 0.00 | 0.11 | 0.11 | 73 | 1010.1 |
| 20260831110048 | 77 | 148 | 3.0 | 9.0 | 0.00 | 0.11 | 0.11 | 74 | 1010.2 |
| 20260831105524 | 77 | 178 | 4.0 | 9.0 | 0.00 | 0.11 | 0.11 | 75 | 1010.3 |
| 20260831105024 | 77 | 200 | 4.0 | 8.0 | 0.00 | 0.11 | 0.11 | 75 | 1010.3 |
| 20260831104544 | 77 | 142 | 3.0 | 8.0 | 0.00 | 0.11 | 0.11 | 76 | 1010.0 |
| 20260831104025 | 77 | 157 | 2.0 | 9.0 | 0.00 | 0.11 | 0.11 | 76 | 1009.9 |
| 20260831103525 | 77 | 159 | 4.0 | 9.0 | 0.00 | 0.11 | 0.11 | 75 | 1009.9 |
| 20260831103055 | 78 | 188 | 3.0 | 9.0 | 0.00 | 0.11 | 0.11 | 73 | 1009.9 |
| 20260831102524 | 78 | 150 | 2.0 | 6.0 | 0.00 | 0.11 | 0.11 | 72 | 1009.7 |
| 20260831102031 | 78 | 112 | 2.0 | 7.0 | 0.00 | 0.11 | 0.11 | 70 | 1009.6 |
| 20260831101612 | 78 | 102 | 2.0 | 9.0 | 0.00 | 0.11 | 0.11 | 69 | 1009.4 |
| 20260831101024 | 78 | 78 | 3.0 | 9.0 | 0.00 | 0.11 | 0.11 | 69 | 1009.3 |
| 20260831100524 | 78 | 65 | 3.0 | 6.0 | 0.00 | 0.11 | 0.11 | 70 | 1009.3 |
| 20260831100057 | 78 | 22 | 2.0 | 5.0 | 0.00 | 0.11 | 0.11 | 71 | 1009.4 |
| 20260831095527 | 78 | 58 | 1.0 | 6.0 | 0.00 | 0.11 | 0.11 | 71 | 1009.6 |
| 20260831095028 | 78 | 22 | 2.0 | 7.0 | 0.00 | 0.11 | 0.11 | 73 | 1009.6 |
| 20260831094544 | 77 | 37 | 2.0 | 8.0 | 0.00 | 0.11 | 0.11 | 74 | 1009.6 |
| 20260831094023 | 77 | 67 | 3.0 | 8.0 | 0.00 | 0.11 | 0.11 | 76 | 1009.7 |
| 20260831093525 | 78 | 108 | 3.0 | 8.0 | 0.00 | 0.11 | 0.11 | 76 | 1009.9 |
| 20260831093057 | 78 | 148 | 2.0 | 8.0 | 0.00 | 0.11 | 0.11 | 75 | 1010.0 |
| 20260831092525 | 78 | 115 | 3.0 | 8.0 | 0.00 | 0.11 | 0.11 | 74 | 1010.3 |
| 20260831092024 | 79 | 150 | 3.0 | 7.0 | 0.00 | 0.11 | 0.11 | 73 | 1010.1 |
| 20260831091549 | 79 | 98 | 2.0 | 6.0 | 0.00 | 0.11 | 0.11 | 71 | 1009.9 |
| 20260831091029 | 79 | 83 | 1.0 | 5.0 | 0.00 | 0.11 | 0.11 | 71 | 1009.8 |
| 20260831090527 | 79 | 69 | 2.0 | 7.0 | 0.00 | 0.11 | 0.11 | 71 | 1010.0 |
| 20260831090105 | 79 | 61 | 2.0 | 10.0 | 0.00 | 0.11 | 0.11 | 72 | 1010.0 |
| 20260831085525 | 78 | 13 | 3.0 | 10.0 | 0.00 | 0.11 | 0.11 | 73 | 1010.1 |
| 20260831085030 | 77 | 61 | 3.0 | 8.0 | 0.00 | 0.11 | 0.11 | 75 | 1010.4 |
| 20260831084549 | 77 | 87 | 0.0 | 5.0 | 0.01 | 0.11 | 0.11 | 78 | 1010.5 |
| 20260831084024 | 77 | 74 | 2.0 | 7.0 | 0.10 | 0.11 | 0.11 | 78 | 1010.6 |
| 20260831083527 | 77 | 0 | 0.0 | 7.0 | 0.11 | 0.11 | 0.11 | 79 | 1010.6 |
| 20260831083048 | 77 | 100 | 2.0 | 6.0 | 0.11 | 0.11 | 0.11 | 78 | 1010.8 |
| 20260831082526 | 77 | 115 | 2.0 | 6.0 | 0.11 | 0.11 | 0.11 | 77 | 1011.0 |
| 20260831082026 | 77 | 96 | 1.0 | 9.0 | 0.11 | 0.11 | 0.11 | 76 | 1011.2 |
| 20260831081551 | 77 | 84 | 3.0 | 10.0 | 0.11 | 0.11 | 0.11 | 76 | 1011.1 |
| 20260831081025 | 77 | 77 | 5.0 | 10.0 | 0.11 | 0.11 | 0.11 | 77 | 1010.9 |
| 20260831080525 | 77 | 31 | 3.0 | 13.0 | 0.11 | 0.11 | 0.11 | 78 | 1010.6 |
| 20260831080051 | 76 | 42 | 6.0 | 13.0 | 0.11 | 0.11 | 0.11 | 79 | 1010.3 |
| 20260831075525 | 76 | 76 | 1.0 | 12.0 | 0.11 | 0.11 | 0.11 | 75 | 1010.5 |
| 20260831075027 | 79 | 140 | 5.0 | 12.0 | 0.11 | 0.11 | 0.11 | 73 | 1011.1 |
| 20260831074558 | 81 | 52 | 5.0 | 10.0 | 0.08 | 0.08 | 0.08 | 70 | 1011.3 |
| 20260831074032 | 84 | 92 | 2.0 | 9.0 | 0.00 | 0.00 | 0.00 | 62 | 1011.6 |
| 20260831073531 | 84 | 314 | 2.0 | 11.0 | 0.00 | 0.00 | 0.00 | 58 | 1011.2 |
| 20260831073102 | 84 | 5 | 4.0 | 13.0 | 0.00 | 0.00 | 0.00 | 58 | 1010.5 |
| 20260831072527 | 84 | 81 | 5.0 | 13.0 | 0.00 | 0.00 | 0.00 | 58 | 1010.2 |
| 20260831072028 | 84 | 29 | 7.0 | 17.0 | 0.00 | 0.00 | 0.00 | 57 | 1010.2 |
| 20260831071551 | 85 | 34 | 6.0 | 17.0 | 0.00 | 0.00 | 0.00 | 56 | 1010.4 |
| 20260831071027 | 85 | 5 | 7.0 | 17.0 | 0.00 | 0.00 | 0.00 | 55 | 1010.5 |
| 20260831070524 | 85 | 308 | 6.0 | 12.0 | 0.00 | 0.00 | 0.00 | 54 | 1010.4 |
| 20260831070049 | 85 | 328 | 6.0 | 13.0 | 0.00 | 0.00 | 0.00 | 55 | 1010.4 |
| 20260831065527 | 84 | 26 | 5.0 | 17.0 | 0.00 | 0.00 | 0.00 | 56 | 1010.1 |
| 20260831065030 | 84 | 13 | 7.0 | 17.0 | 0.00 | 0.00 | 0.00 | 56 | 1009.9 |
| 20260831064554 | 85 | 36 | 3.0 | 13.0 | 0.00 | 0.00 | 0.00 | 55 | 1009.8 |
| 20260831064033 | 84 | 5 | 5.0 | 13.0 | 0.00 | 0.00 | 0.00 | 55 | 1010.0 |
| 20260831063527 | 85 | 55 | 5.0 | 13.0 | 0.00 | 0.00 | 0.00 | 55 | 1010.2 |
| 20260831063052 | 85 | 15 | 4.0 | 15.0 | 0.00 | 0.00 | 0.00 | 54 | 1010.1 |
| 20260831062527 | 85 | 25 | 6.0 | 15.0 | 0.00 | 0.00 | 0.00 | 54 | 1010.0 |
| 20260831062036 | 85 | 21 | 2.0 | 11.0 | 0.00 | 0.00 | 0.00 | 54 | 1009.7 |
| 20260831061600 | 85 | 327 | 5.0 | 11.0 | 0.00 | 0.00 | 0.00 | 54 | 1009.8 |
| 20260831061028 | 85 | 352 | 1.0 | 4.0 | 0.00 | 0.00 | 0.00 | 53 | 1009.7 |
| 20260831060527 | 85 | 202 | 0.0 | 10.0 | 0.00 | 0.00 | 0.00 | 53 | 1009.2 |
| 20260831060106 | 85 | 287 | 4.0 | 11.0 | 0.00 | 0.00 | 0.00 | 53 | 1009.2 |
| 20260831055524 | 85 | 296 | 5.0 | 11.0 | 0.00 | 0.00 | 0.00 | 52 | 1009.0 |
| 20260831055027 | 85 | 321 | 5.0 | 11.0 | 0.00 | 0.00 | 0.00 | 52 | 1008.7 |
| 20260831054550 | 85 | 300 | 5.0 | 11.0 | 0.00 | 0.00 | 0.00 | 53 | 1008.7 |
| 20260831054034 | 85 | 252 | 5.0 | 11.0 | 0.00 | 0.00 | 0.00 | 54 | 1008.8 |
| 20260831053527 | 85 | 226 | 6.0 | 10.0 | 0.00 | 0.00 | 0.00 | 53 | 1008.9 |
| 20260831053050 | 85 | 0 | 3.0 | 9.0 | 0.00 | 0.00 | 0.00 | 54 | 1008.9 |
| 20260831052529 | 84 | 269 | 3.0 | 8.0 | 0.00 | 0.00 | 0.00 | 57 | 1008.8 |
| 20260831052025 | 84 | 175 | 3.0 | 10.0 | 0.00 | 0.00 | 0.00 | 59 | 1008.9 |
| 20260831051604 | 84 | 218 | 5.0 | 13.0 | 0.00 | 0.00 | 0.00 | 60 | 1008.8 |
| 20260831051025 | 85 | 211 | 5.0 | 13.0 | 0.00 | 0.00 | 0.00 | 57 | 1008.9 |
| 20260831050524 | 86 | 207 | 6.0 | 14.0 | 0.00 | 0.00 | 0.00 | 56 | 1008.8 |
| 20260831050059 | 85 | 267 | 6.0 | 17.0 | 0.00 | 0.00 | 0.00 | 56 | 1008.7 |
| 20260831045529 | 85 | 260 | 8.0 | 21.0 | 0.00 | 0.00 | 0.00 | 57 | 1008.7 |
| 20260831045030 | 84 | 263 | 9.0 | 21.0 | 0.00 | 0.00 | 0.00 | 58 | 1009.0 |
| 20260831044549 | 83 | 228 | 6.0 | 18.0 | 0.00 | 0.00 | 0.00 | 61 | 1009.2 |
| 20260831044027 | 83 | 244 | 8.0 | 13.0 | 0.00 | 0.00 | 0.00 | 64 | 1009.2 |
| 20260831043527 | 83 | 244 | 5.0 | 23.0 | 0.00 | 0.00 | 0.00 | 63 | 1009.4 |
| 20260831043053 | 84 | 275 | 7.0 | 23.0 | 0.00 | 0.00 | 0.00 | 58 | 1009.5 |
| 20260831042524 | 85 | 272 | 9.0 | 23.0 | 0.00 | 0.00 | 0.00 | 55 | 1009.6 |
| 20260831042025 | 87 | 235 | 9.0 | 21.0 | 0.00 | 0.00 | 0.00 | 52 | 1009.2 |
| 20260831041559 | 89 | 242 | 9.0 | 15.0 | 0.00 | 0.00 | 0.00 | 52 | 1009.2 |
| 20260831041029 | 89 | 256 | 4.0 | 15.0 | 0.00 | 0.00 | 0.00 | 53 | 1008.8 |
| 20260831040528 | 90 | 229 | 7.0 | 15.0 | 0.00 | 0.00 | 0.00 | 49 | 1008.7 |
| 20260831040054 | 90 | 233 | 6.0 | 21.0 | 0.00 | 0.00 | 0.00 | 47 | 1008.8 |
| 20260831035524 | 90 | 230 | 7.0 | 21.0 | 0.00 | 0.00 | 0.00 | 46 | 1008.7 |
| 20260831035025 | 90 | 173 | 7.0 | 24.0 | 0.00 | 0.00 | 0.00 | 46 | 1008.6 |
| 20260831034550 | 90 | 220 | 10.0 | 24.0 | 0.00 | 0.00 | 0.00 | 46 | 1008.5 |
| 20260831034027 | 91 | 221 | 9.0 | 22.0 | 0.00 | 0.00 | 0.00 | 45 | 1008.8 |
| 20260831033527 | 93 | 217 | 8.0 | 22.0 | 0.00 | 0.00 | 0.00 | 43 | 1008.7 |
| 20260831033050 | 98 | 245 | 8.0 | 20.0 | 0.00 | 0.00 | 0.00 | 35 | 1008.6 |
| 20260831032528 | 100 | 0 | 0.0 | 3.0 | 0.00 | 0.00 | 0.00 | 33 | 1007.7 |
| 20260831032028 | 100 | 352 | 0.0 | 2.0 | 0.00 | 0.00 | 0.00 | 33 | 1007.6 |
| 20260831031554 | 100 | 352 | 0.0 | 3.0 | 0.00 | 0.00 | 0.00 | 33 | 1007.4 |
| 20260831031025 | 100 | 5 | 1.0 | 3.0 | 0.00 | 0.00 | 0.00 | 33 | 1007.2 |
| 20260831030525 | 100 | 0 | 0.0 | 3.0 | 0.00 | 0.00 | 0.00 | 33 | 1007.2 |
| 20260831030110 | 100 | 9 | 1.0 | 4.0 | 0.00 | 0.00 | 0.00 | 32 | 1007.1 |
| 20260831025525 | 100 | 31 | 1.0 | 6.0 | 0.00 | 0.00 | 0.00 | 32 | 1007.1 |
| 20260831025024 | 100 | 42 | 1.0 | 6.0 | 0.00 | 0.00 | 0.00 | 32 | 1007.0 |
| 20260831024611 | 100 | 0 | 1.0 | 4.0 | 0.00 | 0.00 | 0.00 | 32 | 1007.0 |
| 20260831024023 | 100 | 338 | 1.0 | 4.0 | 0.00 | 0.00 | 0.00 | 32 | 1006.9 |
| 20260831023525 | 100 | 0 | 0.0 | 2.0 | 0.00 | 0.00 | 0.00 | 32 | 1006.9 |
| 20260831023047 | 100 | 0 | 0.0 | 3.0 | 0.00 | 0.00 | 0.00 | 32 | 1006.8 |
| 20260831022524 | 100 | 0 | 1.0 | 3.0 | 0.00 | 0.00 | 0.00 | 32 | 1006.7 |
| 20260831022024 | 100 | 43 | 1.0 | 3.0 | 0.00 | 0.00 | 0.00 | 31 | 1006.7 |
| 20260831021554 | 100 | 348 | 0.0 | 4.0 | 0.00 | 0.00 | 0.00 | 32 | 1006.4 |
| 20260831021028 | 100 | 55 | 0.0 | 4.0 | 0.00 | 0.00 | 0.00 | 31 | 1006.3 |
| 20260831020526 | 101 | 55 | 1.0 | 4.0 | 0.00 | 0.00 | 0.00 | 31 | 1006.2 |
| 20260831020055 | 101 | 57 | 1.0 | 4.0 | 0.00 | 0.00 | 0.00 | 31 | 1006.2 |
| 20260831015528 | 101 | 346 | 1.0 | 4.0 | 0.00 | 0.00 | 0.00 | 31 | 1006.1 |
| 20260831015024 | 101 | 5 | 1.0 | 4.0 | 0.00 | 0.00 | 0.00 | 31 | 1006.2 |
| 20260831014551 | 102 | 0 | 1.0 | 4.0 | 0.00 | 0.00 | 0.00 | 31 | 1006.0 |
| 20260831014024 | 102 | 327 | 1.0 | 4.0 | 0.00 | 0.00 | 0.00 | 31 | 1005.9 |
| 20260831013525 | 102 | 0 | 1.0 | 3.0 | 0.00 | 0.00 | 0.00 | 30 | 1005.9 |
| 20260831013109 | 102 | 17 | 1.0 | 3.0 | 0.00 | 0.00 | 0.00 | 30 | 1005.9 |